Miscellaneous Local Product
Issued by NWS North Platte, NE

Home | Current Version | Previous Version | Text Only | Print | Product List | Glossary On
Versions: 1 2 3 4 5 6 7 8 9 10 11 12 13 14 15 16 17 18 19 20 21 22 23 24 25 26 27 28 29 30 31 32 33 34 35 36 37 38 39 40 41 42 43 44 45 46 47 48 49 50
000
AXUS43 KLBF 251810
MISLBF


WESTERN AND NORTH CENTRAL NEBRASKA HOURLY WEATHER ROUNDUP
NATIONAL WEATHER SERVICE NORTH PLATTE NE
100 PM CDT SAT OCT 25 2014

***STATIONS NOT REPORTING VARIABLES SUCH AS SKY/WEATHER OR
PRESSURE ARE PROVIDED BY THE NEBRASKA DEPARTMENT OF
ROADS...RAWS...AND APRS NETWORKS...AND ARE NOT UNDER
NATIONAL WEATHER SERVICE QUALITY CONTROL***

...OBSERVATIONS IN AND NEAR THE EASTERN PANHANDLE OF NEBRASKA...

CITY           SKY/WX    TMP DP  RH WIND       PRES   REMARKS
PINE RIDGE     SUNNY     63  38  39 E9        30.13F
CHADRON        SUNNY     59  40  49 NE5       30.12F
ALLIANCE       SUNNY     61  39  44 S5        30.14F
SIDNEY         SUNNY     71  36  27 SE6       30.16F
WHITECLAY        N/A     62  38  40 E9          N/A
RUSHVILLE        N/A     61  33  35 SE15        N/A
CRESCENT LAKE    N/A     68  39  34 S3          N/A
LISCO            N/A     67  32  27 E3          N/A
BIG SPRINGS      N/A     59  39  46 CALM        N/A
LEWELLEN         N/A     72  35  25 CALM        N/A
$$

...OBSERVATIONS IN NORTH CENTRAL NEBRASKA...

CITY           SKY/WX    TMP DP  RH WIND       PRES   REMARKS
VALENTINE      SUNNY     65  28  24 E14       30.15F
THEDFORD       SUNNY     68  37  31 E10       30.15F
AINSWORTH      SUNNY     64  31  29 E10       30.15F
O`NEILL        SUNNY     67  35  30 E8        30.16F
ORD            SUNNY     68  39  34 E9        30.12F
BROKEN BOW     SUNNY     69  43  38 SE10      30.13F
BROWNLEE         N/A     68  32  27 E13         N/A
SPRINGVIEW       N/A     64  34  33 NE5G12      N/A
BREWSTER         N/A     71  39  30 E10         N/A
ROSE             N/A     71  38  30 E10         N/A
NEWPORT          N/A     67  34  29 E12         N/A
SARGENT          N/A     67  41  39 E3          N/A
COMSTOCK         N/A     75  43  31 E5          N/A
CHAMBERS         N/A     67  38  34 SE5G12      N/A
EWING            N/A     67  38  34 CALM        N/A
$$

...OBSERVATIONS IN SOUTHWEST NEBRASKA AND FAR NORTHEAST COLORADO...

CITY           SKY/WX    TMP DP  RH WIND       PRES   REMARKS
WRAY           FAIR      76  30  18 NE3       30.14F
HOLYOKE        FAIR      73  36  25 CALM      30.15S
IMPERIAL       SUNNY     73  36  25 E5        30.12F
OGALLALA       SUNNY     69  39  33 CALM      30.13F
NORTH PLATTE   SUNNY     69  46  43 E9        30.12F
MCCOOK         SUNNY     71  46  40 E6        30.10F
LEXINGTON      SUNNY     71  46  41 E8        30.11F
PAXTON           N/A     61  42  49 CALM        N/A
SUTHERLAND       N/A     70  42  36 E6          N/A
BRADY            N/A     70  48  45 CALM        N/A
GOTHENBURG       N/A     66  42  42 E7          N/A
CALLAWAY         N/A     67  46  47 E8          N/A
$$

...SOME WEATHER OBSERVATIONS FROM AROUND THE REGION...

CITY           SKY/WX    TMP DP  RH WIND       PRES   REMARKS
DENVER         SUNNY     76  19  11 SE10      30.21F
LARAMIE        SUNNY     68  21  16 W17       30.27F
CHEYENNE       SUNNY     71  19  14 S14G21    30.23F
SCOTTSBLUFF    SUNNY     64  32  30 CALM      30.14F
RAPID CITY     SUNNY     62  30  29 S18       30.12F
PIERRE         SUNNY     63  31  30 VRB3      30.14F
WINNER         FAIR      66  27  23 E9        30.15F
SIOUX FALLS    SUNNY     65  36  34 NE7       30.14F
OMAHA          MOSUNNY   70  39  32 E6        30.11F
GRAND ISLAND   SUNNY     70  44  39 E6        30.12F
KANSAS CITY    MOSUNNY   75  57  53 E6        30.07F
WICHITA        SUNNY     83  62  49 SE5       30.05F
HAYS           SUNNY     75  52  43 SE6       30.07F
LIBERAL        SUNNY     82  48  30 S10       30.11F
GOODLAND       SUNNY     77  34  21 E6        30.13F
$$



USA.gov is the U.S. government's official web portal to all federal, state and local government web resources and services.